Погода в Кампус-ду-Жордау

Бразилия     22°43′04″S   45°33′56″W
темп.,
°C
ветер,
м/с
пор.,
м/с
влажн.,
%
обл.,
%
осадки,
мм/ч
давл.,
гПа
погр.,
м
27 февраля, сб
сб2700:00+16св1398100 0.0 101579
03:00+15с129796 0.0 101444
06:00+15ссз1196100 0.1 101432
09:00+18св129498 0.9 1016246
12:00+18св129893 3.2 1016194
15:00+19св149696 6.1 1014425
18:00+17ссв229596 1.1 101475
21:00+16ссв129398 1.1 101561
28 февраля, вс
вс2800:00+16св1287100 0.0 101542
03:00+15с128894 0.0 101448
06:00+14ссз118446 0.0 101528
09:00+22св146747 0.0 1015660
12:00+22ссв1384100 2.3 1015707
15:00+20с129599 8.1 1012332
18:00+19в119697 2.2 101228
21:00+16ссв119598 2.7 101423
1 марта, пн
пн100:00+15ссв129688 0.0 101437
03:00+14ссз129578 0.0 101329
06:00+14ссз229534 0.0 101437
09:00+22с146932 0.0 1015722
12:00+26ссв13527 0.1 10141417
15:00+26всв12537 0.6 10111615
18:00+20св119441 1.5 101127
21:00+17с129526 1.6 101425
2 марта, вт
вт200:00+16ссз229537 0.0 101429
03:00+16ссз229667 0.0 101341
06:00+16ссз229693 0.0 101555
09:00+21ссз137596 0.0 1016656
12:00+26с1259100 0.3 10151156
15:00+22с128893 3.9 1013458
18:00+20св119399 2.6 101323
21:00+17с129599 2.7 101525
3 марта, ср
ср300:00+16с129599 0.0 101628
03:00+16ссз2295100 0.0 101541
06:00+16ссз229652 0.1 101644
09:00+22ссз147164 0.1 1017830
12:00+25с2454100 0.1 10161489
15:00+24зюз016389 0.9 10141035
18:00+18сз019689 1.9 101429
21:00+17ссв119794 4.8 101630